Weather History for Muscle Shoals, AL

Change the Weather History Date:

Monday, October 14, 2013

  Actual Average Record
Temperature  
Mean Temperature 70 °F 63 °F  
Max Temperature 82 °F 75 °F 90 °F (1940)
Min Temperature 58 °F 50 °F 27 °F (1917)
Degree Days  
Heating Degree Days 0 4  
Month to date heating degree days 4 43  
Since 1 July heating degree days 4 58  
Cooling Degree Days 5 2  
Month to date cooling degree days 88 40  
Year to date cooling degree days 1878 1842  
Growing Degree Days 20 (Base 50)    
Moisture  
Dew Point 60 °F    
Average Humidity 67    
Maximum Humidity 90    
Minimum Humidity 43    
Precipitation  
Precipitation 0.00 in 0.11 in 1.89 in (1909)
Month to date precipitation 0.72 1.48  
Year to date precipitation 46.07 40.91  
Snow  
Snow 0.00 in - - ()
Month to date snowfall 0.0  
Since 1 July snowfall 0.0  
Since 1 September snowfall 0.0  
Snow Depth 0.00 in    
Sea Level Pressure  
Sea Level Pressure 30.16 in    
Wind  
Wind Speed 3 mph (ENE)    
Max Wind Speed 9 mph    
Max Gust Speed 14 mph    
Visibility 7 miles    
Events Fog    
T = Trace of Precipitation, MM = Missing Value Source: NWS Daily Summary

Daily Weather History Graph

Daily Weather History Graph

Search for Another Location

Airport:

Trip Planner

Search our weather history database for the weather conditions in past years. The results will help you decide how hot, cold, wet, or windy it might be!

Date:

Astronomy

Oct. 14, 2013 Rise Set
Actual Time 6:55 AM CDT 6:16 PM CDT
Civil Twilight 6:30 AM CDT 6:41 PM CDT
Nautical Twilight 6:00 AM CDT 7:11 PM CDT
Astronomical Twilight 5:31 AM CDT 7:40 PM CDT
Moon 3:36 PM CDT (10/14) 2:22 AM CDT (10/14)
Length of Visible Light 12h 11m
Length of Day
11h 21m
Waxing Gibbous, 79% of the Moon is Illuminated
Oct 14
Waxing Gibbous
Oct 18
Full
Oct 26
Last Quarter
Nov 3
New
Nov 9
First Quarter

Hourly Weather History & Observations

Time (CDT) Temp. Heat Index Dew Point Humidity Pressure Visibility Wind Dir Wind Speed Gust Speed Precip Events Conditions
12:53 AM 68.0 °F - 61.0 °F 78% 30.19 in 8.0 mi Variable 3.5 mph - N/A   Clear
1:53 AM 68.0 °F - 61.0 °F 78% 30.20 in 8.0 mi NNE 3.5 mph - N/A   Clear
2:53 AM 66.9 °F - 61.0 °F 81% 30.19 in 8.0 mi NE 4.6 mph - N/A   Clear
3:53 AM 64.0 °F - 60.1 °F 87% 30.19 in 7.0 mi East 3.5 mph - N/A   Clear
4:53 AM 64.0 °F - 60.1 °F 87% 30.20 in 6.0 mi ENE 3.5 mph - N/A   Clear
5:53 AM 64.0 °F - 60.1 °F 87% 30.20 in 6.0 mi ENE 3.5 mph - N/A   Clear
6:53 AM 63.0 °F - 59.0 °F 87% 30.22 in 4.0 mi ENE 3.5 mph - N/A   Clear
7:19 AM 59.0 °F - 57.2 °F 94% 30.23 in 1.8 mi Calm Calm - N/A   Clear
7:27 AM 59.0 °F - 55.4 °F 88% 30.23 in 0.5 mi Calm Calm - N/A Fog Fog
7:32 AM 59.0 °F - 55.4 °F 88% 30.23 in 2.5 mi Calm Calm - N/A   Clear
7:39 AM 60.8 °F - 57.2 °F 88% 30.23 in 4.0 mi Calm Calm - N/A   Clear
7:53 AM 62.1 °F - 59.0 °F 90% 30.22 in 2.5 mi Calm Calm - N/A   Clear
8:20 AM 64.4 °F - 60.8 °F 88% 30.24 in 3.0 mi Calm Calm - N/A   Haze
8:53 AM 69.1 °F - 62.1 °F 78% 30.22 in 6.0 mi NE 3.5 mph - N/A   Haze
9:53 AM 73.0 °F - 60.1 °F 64% 30.21 in 10.0 mi Variable 6.9 mph - N/A   Clear
10:53 AM 75.9 °F - 61.0 °F 60% 30.20 in 10.0 mi East 6.9 mph - N/A   Clear
11:53 AM 78.1 °F - 61.0 °F 56% 30.18 in 10.0 mi Variable 3.5 mph - N/A   Clear
12:53 PM 80.1 °F 80.9 °F 60.1 °F 50% 30.15 in 10.0 mi Variable 5.8 mph - N/A   Partly Cloudy
1:53 PM 81.0 °F 81.3 °F 59.0 °F 47% 30.12 in 10.0 mi Variable 4.6 mph - N/A   Partly Cloudy
2:53 PM 80.1 °F 80.4 °F 57.0 °F 45% 30.11 in 10.0 mi ESE 6.9 mph - N/A   Clear
3:53 PM 82.0 °F 82.0 °F 57.9 °F 44% 30.09 in 10.0 mi East 5.8 mph - N/A   Clear
4:53 PM 81.0 °F 81.1 °F 57.9 °F 45% 30.08 in 10.0 mi East 4.6 mph - N/A   Clear
5:53 PM 79.0 °F - 59.0 °F 50% 30.09 in 10.0 mi Calm Calm - N/A   Clear
6:24 PM 71.6 °F - 60.8 °F 69% 30.10 in 0.5 mi Calm Calm - N/A   Haze
6:28 PM 71.6 °F - 60.8 °F 69% 30.10 in 2.0 mi Calm Calm - N/A   Haze
6:35 PM 71.6 °F - 60.8 °F 69% 30.10 in 8.0 mi Calm Calm - N/A   Clear
6:53 PM 69.1 °F - 60.1 °F 73% 30.09 in 10.0 mi SE 3.5 mph - N/A   Clear
7:53 PM 66.9 °F - 61.0 °F 81% 30.09 in 10.0 mi Calm Calm - N/A   Clear
8:53 PM 64.9 °F - 60.1 °F 84% 30.10 in 10.0 mi Calm Calm - N/A   Clear
9:53 PM 66.0 °F - 60.1 °F 81% 30.11 in 10.0 mi Calm Calm - N/A   Clear
10:53 PM 64.9 °F - 60.1 °F 84% 30.12 in 10.0 mi Calm Calm - N/A   Partly Cloudy
11:53 PM 64.0 °F - 59.0 °F 84% 30.11 in 10.0 mi Calm Calm - N/A   Clear